Weather History for TNCB - September, 2013

Change the Weather History Date:

Thursday, September 5, 2013

  Actual Average Record
Temperature  
Mean Temperature 84 °F -  
Max Temperature 89 °F 89 °F 95 °F (2008)
Min Temperature 78 °F 82 °F 78 °F (2011)
Cooling Degree Days 18    
Growing Degree Days 34 (Base 50)    
Moisture  
Dew Point 79 °F    
Average Humidity 83    
Maximum Humidity 100    
Minimum Humidity 70    
Precipitation  
Precipitation 0.00 in - - ()
Sea Level Pressure  
Sea Level Pressure 29.84 in    
Wind  
Wind Speed 6 mph ()    
Max Wind Speed 14 mph    
Max Gust Speed -    
Visibility 6.2 miles    
Events      
Averages and records for this station are not official NWS values.
T = Trace of Precipitation, MM = Missing Value Source: Averaged Metar Reports

Daily Weather History Graph

Daily Weather History Graph

Search for Another Location

Airport or City:

Trip Planner

Search our weather history database for the weather conditions in past years. The results will help you decide how hot, cold, wet, or windy it might be!

Date:

Astronomy

Sep. 05, 2013 Rise Set
Actual Time 6:22 AM AST 6:40 PM AST
Civil Twilight 6:01 AM AST 7:01 PM AST
Nautical Twilight 5:36 AM AST 7:26 PM AST
Astronomical Twilight 5:11 AM AST 7:51 PM AST
Moon 6:20 AM AST (9/5) 6:45 PM AST (9/5)
Length of Visible Light 13h 00m
Length of Day
12h 18m
New Moon, 0% of the Moon is Illuminated
Sep 5
New Moon
Sep 12
First Quarter
Sep 19
Full
Sep 26
Last Quarter
Oct 4
New

Hourly Weather History & Observations

Time (AST) Temp. Heat Index Dew Point Humidity Pressure Visibility Wind Dir Wind Speed Gust Speed Precip Events Conditions
12:00 AM 82.4 °F 92.4 °F 78.8 °F 89% 29.89 in 6.2 mi East 4.6 mph - N/A   Partly Cloudy
12:55 AM 82.4 °F 92.4 °F 78.8 °F 89% 29.86 in 6.2 mi ESE 6.9 mph - N/A   Partly Cloudy
1:00 AM 82.4 °F 92.4 °F 78.8 °F 89% 29.86 in 6.2 mi ESE 6.9 mph - N/A   Partly Cloudy
2:00 AM 82.4 °F 92.4 °F 78.8 °F 89% 29.83 in 6.2 mi ESE 5.8 mph - N/A   Partly Cloudy
3:00 AM 82.4 °F 92.4 °F 78.8 °F 89% 29.80 in 6.2 mi ESE 4.6 mph - N/A   Partly Cloudy
6:00 AM 80.6 °F 89.3 °F 80.6 °F 100% 29.86 in - East 1.2 mph - N/A   Unknown
6:55 AM 78.8 °F - 77.0 °F 94% 29.86 in - NE 8.1 mph - N/A   Unknown
8:00 AM 80.6 °F 88.1 °F 78.8 °F 94% 29.89 in 6.2 mi NE 4.6 mph - N/A   Mostly Cloudy
9:00 AM 86.0 °F 101.9 °F 80.6 °F 84% 29.89 in 6.2 mi North - - N/A   Scattered Clouds
10:00 AM 87.8 °F 102.5 °F 78.8 °F 75% 29.92 in - East 11.5 mph - N/A   Unknown
11:00 AM 87.8 °F 99.7 °F 77.0 °F 70% 29.89 in - East 13.8 mph - N/A   Unknown
12:00 PM 87.8 °F 104.9 °F 80.6 °F 79% 29.89 in 6.2 mi East 12.7 mph - N/A   Scattered Clouds
12:55 PM 89.6 °F 104.7 °F 78.8 °F 70% 29.86 in - ESE 10.4 mph - N/A   Unknown
2:00 PM 87.8 °F 99.7 °F 77.0 °F 70% 29.83 in 6.2 mi East 9.2 mph - N/A   Scattered Clouds
3:00 PM 89.6 °F 108.2 °F 80.6 °F 75% 29.80 in 6.2 mi East 8.1 mph - N/A   Scattered Clouds
4:00 PM 87.8 °F 102.5 °F 78.8 °F 75% 29.77 in 6.2 mi East 10.4 mph - N/A   Partly Cloudy
4:55 PM 87.8 °F 102.5 °F 78.8 °F 75% 29.77 in - ENE 11.5 mph - N/A   Unknown
5:55 PM 86.0 °F 99.3 °F 78.8 °F 79% 29.77 in - ENE 9.2 mph - N/A   Unknown
6:55 PM 84.2 °F 96.1 °F 78.8 °F 84% 29.80 in - ENE 8.1 mph - N/A   Unknown
8:00 PM 84.2 °F 98.3 °F 80.6 °F 89% 29.83 in 6.2 mi ENE 9.2 mph - N/A   Partly Cloudy